Main page
METAR-TAF:

METAR-TAF

Airports :

RAF Topcliffe

Topcliffe, England

latitude: 54-12N, longitude: 001-23W, elevation: 28 m

Current weather observation

The report was made 23 minutes ago, at 05:20 UTC
Wind 2 kt from the South/Southeast
Temperature -4°C
Humidity 100%
Pressure 991 hPa
Visibility: 0050 m
fog,

METAR: EGXZ 240520Z AUTO 16002KT 0050 FG OVC002/// M04/M04 Q0991

Time: 05:43 (05:43 UTC)


TAF: missing

Weather observations and forecasts of more than 4000 airports (METAR and TAF reports).

The available stations are represented by yellow and red dots on the map.

Hover mouse over dot to see the name of the station.

Then click to see weather observations and forecasts.

To change the map : click on the green buttons with a black cross to zoom in, on the green button with a dash to zoom out, or on the green arrows for adjacent maps.


METAR-TAF: